Date String (YYYY-MM-DD hh:mm:ss) UTC,Instrument flags,absolute air pressure of the measurement (hPa),sample flow rate (lpm),inlet stack bypass flow (lpm),air temperature of the measurement (°C),ambient temperature measured by the external sensor (°C),aerosol sample conditioner tube jacket temperature (°C),OPC LED temperature (°C),internal box temperature (°C),relative humidity of the measurement (%),span deviation,mass concentration of particles derived from Lorenz-Mie calculation of OPC scattering (μg/m³),mass concentration of particles derived from Lorenz-Mie calculation of OPC scattering (μg/m³),mass concentration of particles derived from Lorenz-Mie calculation of OPC scattering (μg/m³)
DateTimeUTC,F1_M11,P_M11,Q1_M11,Q2_M11,T1_M11,T2_M11,T3_M11,T4_M11,T5_M11,U1_M11,ZSPAN_M11,X2_M11,X0_M11,X1_M11
2024-04-04 05:00:00,SystemResetWarning,0828.0,4.99,000.00,025.4,024.4,000.0,034.1,027.3,011.8,0000.0,0002.65,0005.40,0001.74
2024-04-04 05:01:00,SystemResetWarning,0828.0,5.00,000.00,025.4,024.4,000.0,034.1,027.3,011.8,0000.0,0002.69,0005.43,0001.75
2024-04-04 05:02:00,SystemResetWarning,0828.0,5.00,000.00,025.4,024.4,000.0,034.1,027.3,011.7,0000.0,0002.65,0005.23,0001.75
2024-04-04 05:03:00,SystemResetWarning,0828.1,4.99,000.00,025.4,024.5,000.0,034.1,027.3,011.7,0000.0,0002.63,0006.16,0001.75
2024-04-04 05:04:00,SystemResetWarning,0828.1,5.00,000.00,025.4,024.5,000.0,034.1,027.3,011.6,0000.0,0002.60,0007.30,0001.76
2024-04-04 05:05:00,SystemResetWarning,0828.1,5.00,000.00,025.4,024.5,000.0,034.1,027.3,011.5,0000.0,0002.60,0007.25,0001.77
2024-04-04 05:06:00,SystemResetWarning,0828.1,5.00,000.00,025.4,024.5,000.0,034.1,027.3,011.5,0000.0,0002.57,0007.17,0001.78
2024-04-04 05:07:00,SystemResetWarning,0828.1,5.00,000.00,025.4,024.5,000.0,034.1,027.3,011.5,0000.0,0002.55,0007.13,0001.77
2024-04-04 05:08:00,SystemResetWarning,0828.1,5.00,000.00,025.5,024.6,000.0,034.1,027.3,011.5,0000.0,0002.55,0007.14,0001.77
2024-04-04 05:09:00,SystemResetWarning,0828.1,5.00,000.00,025.5,024.6,000.0,034.1,027.3,011.4,0000.0,0002.50,0006.90,0001.76
2024-04-04 05:10:00,SystemResetWarning,0828.1,5.00,000.00,025.5,024.6,000.0,034.1,027.3,011.3,0000.0,0002.52,0006.88,0001.76
2024-04-04 05:11:00,SystemResetWarning,0828.0,5.01,000.00,025.5,024.6,000.0,034.1,027.3,011.2,0000.0,0002.53,0006.91,0001.77
2024-04-04 05:12:00,SystemResetWarning,0828.1,5.00,000.00,025.5,024.6,000.0,034.1,027.3,010.9,0000.0,0002.49,0006.81,0001.76
2024-04-04 05:13:00,SystemResetWarning,0828.1,5.01,000.00,025.5,024.6,000.0,034.1,027.4,011.0,0000.0,0002.47,0006.89,0001.74
2024-04-04 05:14:00,SystemResetWarning,0828.1,5.00,000.00,025.5,024.6,000.0,034.1,027.4,010.7,0000.0,0002.41,0006.11,0001.71
2024-04-04 05:15:00,SystemResetWarning,0828.1,5.00,000.00,025.5,024.6,000.0,034.1,027.4,010.9,0000.0,0002.34,0004.38,0001.69
2024-04-04 05:16:00,SystemResetWarning,0828.0,4.99,000.00,025.5,024.6,000.0,034.1,027.3,010.9,0000.0,0002.32,0003.87,0001.67
2024-04-04 05:17:00,SystemResetWarning,0828.0,5.00,000.00,025.5,024.6,000.0,034.1,027.3,010.9,0000.0,0002.30,0003.81,0001.66
2024-04-04 05:18:00,SystemResetWarning,0828.1,5.00,000.00,025.5,024.6,000.0,034.1,027.4,010.9,0000.0,0002.27,0003.67,0001.64
2024-04-04 05:19:00,SystemResetWarning,0828.1,5.00,000.00,025.5,024.6,000.0,034.1,027.4,010.9,0000.0,0002.20,0003.48,0001.62
2024-04-04 05:20:00,SystemResetWarning,0828.1,5.00,000.00,025.5,024.6,000.0,034.1,027.3,010.9,0000.0,0002.14,0004.23,0001.60
2024-04-04 05:21:00,SystemResetWarning,0828.1,5.00,000.00,025.5,024.7,000.0,034.1,027.4,010.9,0000.0,0002.14,0004.28,0001.58
2024-04-04 05:22:00,SystemResetWarning,0828.1,5.00,000.00,025.5,024.7,000.0,034.1,027.4,010.9,0000.0,0002.11,0004.25,0001.56
2024-04-04 05:23:00,SystemResetWarning,0828.0,5.00,000.00,025.5,024.7,000.0,034.1,027.3,010.9,0000.0,0002.07,0004.22,0001.53
2024-04-04 05:24:00,SystemResetWarning,0828.1,5.00,000.00,025.5,024.7,000.0,034.1,027.4,010.9,0000.0,0002.04,0004.07,0001.53
2024-04-04 05:25:00,SystemResetWarning,0828.1,5.00,000.00,025.5,024.7,000.0,034.1,027.4,010.9,0000.0,0002.07,0004.15,0001.54
2024-04-04 05:26:00,SystemResetWarning,0828.0,5.00,000.00,025.5,024.7,000.0,034.1,027.4,010.9,0000.0,0002.12,0004.22,0001.55
2024-04-04 05:27:00,SystemResetWarning,0828.0,5.00,000.00,025.5,024.7,000.0,034.1,027.4,010.9,0000.0,0002.13,0004.41,0001.56
2024-04-04 05:28:00,SystemResetWarning,0828.0,5.00,000.00,025.5,024.7,000.0,034.1,027.3,010.9,0000.0,0002.19,0005.77,0001.57
2024-04-04 05:29:00,SystemResetWarning,0828.0,5.00,000.00,025.5,024.7,000.0,034.1,027.3,010.6,0000.0,0002.20,0005.80,0001.57
2024-04-04 05:30:00,SystemResetWarning,0828.0,5.00,000.00,025.5,024.7,000.0,034.1,027.4,010.5,0000.0,0002.22,0005.85,0001.57
2024-04-04 05:31:00,SystemResetWarning,0828.1,5.01,000.00,025.5,024.6,000.0,034.1,027.4,010.6,0000.0,0002.24,0005.09,0001.56
2024-04-04 05:32:00,SystemResetWarning,0828.0,5.00,000.00,025.5,024.6,000.0,034.1,027.4,010.8,0000.0,0002.24,0005.11,0001.56
2024-04-04 05:33:00,SystemResetWarning,0828.0,5.00,000.00,025.5,024.6,000.0,034.1,027.4,010.6,0000.0,0002.19,0004.92,0001.56
2024-04-04 05:34:00,SystemResetWarning,0827.9,5.00,000.00,025.5,024.6,000.0,034.1,027.3,010.5,0000.0,0002.21,0004.92,0001.56
2024-04-04 05:35:00,SystemResetWarning,0827.9,5.00,000.00,025.5,024.5,000.0,034.1,027.3,010.5,0000.0,0002.20,0004.83,0001.56
2024-04-04 05:36:00,SystemResetWarning,0827.9,5.00,000.00,025.5,024.5,000.0,034.1,027.3,010.5,0000.0,0002.19,0004.81,0001.56
2024-04-04 05:37:00,SystemResetWarning,0827.8,5.01,000.00,025.5,024.5,000.0,034.1,027.3,010.6,0000.0,0002.19,0004.83,0001.56
2024-04-04 05:38:00,SystemResetWarning,0828.0,5.00,000.00,025.4,024.5,000.0,034.1,027.3,010.6,0000.0,0002.15,0004.51,0001.56
2024-04-04 05:39:00,SystemResetWarning,0827.8,5.00,000.00,025.4,024.5,000.0,034.1,027.3,010.6,0000.0,0002.10,0003.20,0001.55
2024-04-04 05:40:00,SystemResetWarning,0827.8,5.00,000.00,025.4,024.5,000.0,034.1,027.3,010.7,0000.0,0002.08,0003.17,0001.54
2024-04-04 05:41:00,SystemResetWarning,0827.9,5.01,000.00,025.4,024.5,000.0,034.1,027.3,010.8,0000.0,0002.09,0003.13,0001.56
2024-04-04 05:42:00,SystemResetWarning,0827.8,5.00,000.00,025.4,024.5,000.0,034.1,027.3,010.7,0000.0,0002.13,0003.16,0001.57
2024-04-04 05:43:00,SystemResetWarning,0827.8,5.00,000.00,025.4,024.5,000.0,034.1,027.2,010.7,0000.0,0002.13,0003.24,0001.58
2024-04-04 05:44:00,SystemResetWarning,0827.8,5.00,000.00,025.4,024.4,000.0,034.1,027.2,010.8,0000.0,0002.13,0003.27,0001.58
2024-04-04 05:45:00,SystemResetWarning,0827.8,4.99,000.00,025.4,024.4,000.0,034.1,027.2,010.8,0000.0,0002.12,0003.24,0001.58
2024-04-04 05:46:00,SystemResetWarning,0827.8,4.99,000.00,025.4,024.3,000.0,034.1,027.2,010.9,0000.0,0002.13,0003.30,0001.58
2024-04-04 05:47:00,SystemResetWarning,0827.8,5.00,000.00,025.3,024.3,000.0,034.0,027.2,010.9,0000.0,0002.16,0003.43,0001.58
2024-04-04 05:48:00,SystemResetWarning,0827.8,5.00,000.00,025.3,024.3,000.0,034.0,027.2,011.0,0000.0,0002.15,0004.54,0001.59
2024-04-04 05:49:00,SystemResetWarning,0827.8,5.00,000.00,025.3,024.3,000.0,034.0,027.1,011.0,0000.0,0002.17,0004.63,0001.59
2024-04-04 05:50:00,SystemResetWarning,0827.8,5.01,000.00,025.3,024.3,000.0,034.0,027.1,011.2,0000.0,0002.18,0004.65,0001.61
2024-04-04 05:51:00,SystemResetWarning,0827.8,5.01,000.00,025.3,024.3,000.0,034.0,027.1,011.2,0000.0,0002.27,0004.92,0001.63
2024-04-04 05:52:00,SystemResetWarning,0827.8,4.99,000.00,025.3,024.3,000.0,034.0,027.1,011.2,0000.0,0002.30,0005.09,0001.64
2024-04-04 05:53:00,SystemResetWarning,0827.8,4.98,000.00,025.3,024.3,000.0,034.0,027.1,011.2,0000.0,0002.29,0005.16,0001.65
2024-04-04 05:54:00,SystemResetWarning,0827.8,5.01,000.00,025.3,024.3,000.0,034.0,027.1,011.2,0000.0,0002.28,0005.07,0001.66
2024-04-04 05:55:00,SystemResetWarning,0827.8,5.01,000.00,025.3,024.3,000.0,034.0,027.1,011.2,0000.0,0002.31,0005.34,0001.66
2024-04-04 05:56:00,SystemResetWarning,0827.8,4.99,000.00,025.3,024.3,000.0,034.0,027.1,011.2,0000.0,0002.34,0005.53,0001.68
2024-04-04 05:57:00,SystemResetWarning,0827.8,5.00,000.00,025.3,024.3,000.0,034.0,027.1,011.2,0000.0,0002.40,0005.78,0001.70
2024-04-04 05:58:00,SystemResetWarning,0827.8,4.99,000.00,025.3,024.3,000.0,034.0,027.1,011.1,0000.0,0002.41,0005.74,0001.71
2024-04-04 05:59:00,SystemResetWarning,0827.7,4.99,000.00,025.3,024.3,000.0,034.0,027.1,011.1,0000.0,0002.37,0004.69,0001.70
